Regional Weather Roundup
Issued by NWS

Home | Current Version | Previous Version | Text Only | Print | Product List | Glossary On
Versions: 1 2 3 4 5 6 7 8 9 10 11 12 13 14 15 16 17 18 19 20 21 22 23 24 25 26 27 28 29 30 31 32 33 34 35 36 37 38 39 40 41 42 43 44 45 46 47 48 49 50
000
ASUS44 KJAN 060310
RWRMS

MISSISSIPPI HOURLY WEATHER ROUNDUP
NATIONAL WEATHER SERVICE JACKSON MS
1000 PM CDT SUN JUL 05 2015

NOTE: "FAIR: INDICATES FEW OR NO CLOUDS BELOW 12,000 FEET WITH NO
SIGNIFICANT WEATHER AND/OR OBSTRUCTIONS TO VISIBILITY.

MSZ001>002-007>008-010>013-018>021-025>028-034>036-060400-
NORTHWEST MISSISSIPPI

CITY           SKY/WX    TMP DP  RH WIND       PRES   REMARKS
CLARKSDALE     FAIR      72  72 100 S8        30.09R
CLEVELAND      FAIR      70  70 100 SE3       30.07F
GREENWOOD      CLEAR     70  67  90 CALM      30.09S
GREENVILLE     CLEAR     70  69  97 SE5       30.07S
OLIVE BRANCH     N/A     72  72 100 S5        30.08S
TUNICA         MOCLDY    73  70  88 S6        30.09R
$$

MSZ003>006-009-014>017-022>024-029>033-037>039-060400-
NORTHEAST MISSISSIPPI

CITY           SKY/WX    TMP DP  RH WIND       PRES   REMARKS
COLUMBUS AFB   NOT AVBL
CORINTH        FAIR      75  70  83 S5        30.08R
GOLDN TRIANGLE CLOUDY    73  68  83 SW8       30.11S
STARKVILLE     FAIR      72  68  88 CALM      30.11S
TUPELO         PTCLDY    74  70  87 W3        30.09R
$$

MSZ040-058-060400-
CENTRAL MISSISSIPPI

CITY           SKY/WX    TMP DP  RH WIND       PRES   REMARKS
JACKSON INTL   CLOUDY    70  68  93 SE3       30.09F
JACKSON HAWKNS CLOUDY    71  69  93 SE5       30.09F
MERIDIAN KEY   CLOUDY    68  66  93 CALM      30.13S
MERIDIAN NAS   CLOUDY    68  67  96 CALM      30.13S
VICKSBURG      MOCLDY    70  67  90 E3        30.05F
$$

MSZ059>079-060400-
SOUTH MISSISSIPPI

CITY           SKY/WX    TMP DP  RH WIND       PRES   REMARKS
BROOKHAVEN       N/A     68  68 100 CALM      30.11S
HATTIESBURG    CLOUDY    70  66  87 CALM      30.10F
MCCOMB         CLOUDY    68  68 100 CALM      30.08F
NATCHEZ        NOT AVBL
PINE BELT      CLOUDY    68  64  88 NE5       30.12R
$$

MSZ080>082-060400-
COASTAL MISSISSIPPI

CITY           SKY/WX    TMP DP  RH WIND       PRES   REMARKS
BILOXI         NOT AVBL
PASCAGOULA     CLOUDY    70  69  97 CALM      30.13R
GULFPORT       CLOUDY    70  67  90 MISG      30.09F
$$



USA.gov is the U.S. government's official web portal to all federal, state and local government web resources and services.